Location: ČR
(50.0000°N, 15.0000°E)
Time: 02:39:38
(UTC+00:00)

N. Korean satellite - Pass Details

Date: 03 October 2021
Orbit: 450 x 495 km, 97.3° (Epoch: 22 October)

Event Time Altitude Azimuth Distance (km) Brightness Sun altitude
Rises 04:26:38 0° 12° (NNE) 2,552 10.4 -6.7°
Reaches altitude 10° 04:28:42 10° 13° (NNE) 1,675 9.5 -6.4°
Maximum altitude 04:32:18 90° 52° (NE) 495 6.6 -5.8°
Drops below altitude 10° 04:35:56 10° 194° (SSW) 1,681 9.2 -5.2°
Sets 04:38:00 0° 195° (SSW) 2,562 10.1 -4.9°
